GW0996 Weather Reports


time (UTC)temp
F
wind
direction
speed
knots
gust
knots
rain 1hr
in
rain 24hr
in
rain mn
in
humidity
%
barometer
mb
20260902220354 67 331 0.0 0.0 0.00 0.00 0.00 76 1017.6
20260902215856 67 331 0.0 0.0 0.00 0.00 0.00 75 1017.5
20260902215352 67 329 0.0 0.0 0.00 0.00 0.00 75 1017.4
20260902214845 68 311 0.0 0.0 0.00 0.00 0.00 74 1017.2
20260902213821 68 311 0.0 0.9 0.00 0.00 0.00 73 1017.1
20260902213301 68 310 0.0 0.9 0.00 0.00 0.00 73 1017.2
20260902212756 69 310 0.0 0.9 0.00 0.00 0.00 72 1017.1
20260902212238 69 310 0.0 0.9 0.00 0.00 0.00 71 1017.0
20260902211737 70 309 0.0 1.7 0.00 0.00 0.00 70 1017.1
20260902211231 70 306 0.0 1.7 0.00 0.00 0.00 70 1017.1
20260902210730 70 198 0.0 0.9 0.00 0.00 0.00 69 1016.9
20260902210236 70 241 0.0 0.9 0.00 0.00 0.00 68 1017.0
20260902205740 71 302 0.0 0.0 0.00 0.00 0.00 68 1017.0
20260902204734 71 302 0.0 0.9 0.00 0.00 0.00 67 1017.2
20260902204231 71 303 0.0 0.9 0.00 0.00 0.00 66 1017.1
20260902203733 72 306 0.0 0.9 0.00 0.00 0.00 65 1017.0
20260902203233 72 307 0.0 0.0 0.00 0.00 0.00 63 1017.0
20260902202731 73 307 0.0 0.0 0.00 0.00 0.00 62 1017.2
20260902202234 74 307 0.0 0.9 0.00 0.00 0.00 60 1017.0
20260902201236 76 307 0.0 0.9 0.00 0.00 0.00 56 1017.1
20260902200730 76 306 0.9 1.7 0.00 0.00 0.00 55 1017.1
20260902195731 77 308 0.9 2.6 0.00 0.00 0.00 53 1016.9
20260902195234 77 307 0.0 3.5 0.00 0.00 0.00 52 1017.1
20260902194735 78 312 0.9 3.5 0.00 0.00 0.00 51 1016.8
20260902194233 78 331 1.7 6.1 0.00 0.00 0.00 50 1017.0
20260902193733 78 322 2.6 6.1 0.00 0.00 0.00 48 1017.1
20260902192734 79 311 1.7 3.5 0.00 0.00 0.00 46 1017.1
20260902192234 79 331 1.7 6.1 0.00 0.00 0.00 45 1017.0
20260902191736 79 312 4.3 6.1 0.00 0.00 0.00 44 1016.7
20260902190733 80 327 1.7 5.2 0.00 0.00 0.00 45 1016.7
20260902190236 80 313 4.3 5.2 0.00 0.00 0.00 44 1016.8
20260902185234 80 312 1.7 3.5 0.00 0.00 0.00 47 1016.5
20260902184218 81 317 2.6 5.2 0.00 0.00 0.00 49 1016.4
20260902183215 81 326 3.5 5.2 0.00 0.00 0.00 53 1016.3
20260902182711 81 311 0.9 6.1 0.00 0.00 0.00 54 1016.3
20260902182213 82 313 1.7 6.1 0.00 0.00 0.00 54 1016.2
20260902181701 82 322 0.0 5.2 0.00 0.00 0.00 53 1016.3
20260902181155 82 320 0.9 5.2 0.00 0.00 0.00 52 1016.1
20260902180658 82 317 0.9 3.5 0.00 0.00 0.00 51 1016.3
20260902180148 82 318 0.9 3.5 0.00 0.00 0.00 50 1016.0
20260902175642 83 300 0.0 3.5 0.00 0.00 0.00 49 1015.9
20260902175148 83 322 1.7 3.5 0.00 0.00 0.00 47 1016.0
20260902174643 83 318 2.6 3.5 0.00 0.00 0.00 47 1015.9
20260902174142 83 323 0.9 6.1 0.00 0.00 0.00 48 1015.8
20260902173646 83 308 0.0 6.1 0.00 0.00 0.00 49 1015.9
20260902173150 84 312 0.9 2.6 0.00 0.00 0.00 50 1015.7
20260902172646 84 315 2.6 2.6 0.00 0.00 0.00 50 1015.7
20260902172148 84 313 0.9 2.6 0.00 0.00 0.00 51 1015.5
20260902171145 84 309 3.5 5.2 0.00 0.00 0.00 50 1015.7
20260902170645 85 314 0.9 6.1 0.00 0.00 0.00 49 1015.5
20260902170142 85 330 1.7 6.1 0.00 0.00 0.00 48 1015.6
20260902165643 85 306 1.7 6.1 0.00 0.00 0.00 48 1015.6
20260902164645 85 320 0.9 5.2 0.00 0.00 0.00 46 1015.4
20260902164142 86 344 0.0 7.0 0.00 0.00 0.00 45 1015.4
20260902163645 86 314 2.6 7.0 0.00 0.00 0.00 44 1015.5
20260902163146 86 257 1.7 5.2 0.00 0.00 0.00 43 1015.8
20260902162643 87 26 0.0 6.1 0.00 0.00 0.00 43 1015.5
20260902162144 87 310 2.6 6.1 0.00 0.00 0.00 41 1015.5
20260902161645 87 317 0.9 6.1 0.00 0.00 0.00 42 1015.6
20260902161146 87 320 1.7 6.1 0.00 0.00 0.00 41 1015.5
20260902160651 87 3 0.9 5.2 0.00 0.00 0.00 41 1015.6
20260902160145 88 251 0.0 8.7 0.00 0.00 0.00 42 1015.7
20260902154638 88 314 3.5 9.6 0.00 0.00 0.00 41 1015.7
20260902154138 88 316 3.5 9.6 0.00 0.00 0.00 41 1015.6
20260902153631 88 330 0.0 6.1 0.00 0.00 0.00 41 1015.5
20260902153130 88 313 1.7 6.1 0.00 0.00 0.00 40 1015.7
20260902152137 88 330 1.7 6.1 0.00 0.00 0.00 39 1015.5
20260902151631 88 315 0.9 5.2 0.00 0.00 0.00 39 1015.4
20260902151133 88 319 0.0 6.1 0.00 0.00 0.00 39 1015.6
20260902150633 89 326 2.6 6.1 0.00 0.00 0.00 38 1015.8
20260902150134 89 269 1.7 6.1 0.00 0.00 0.00 37 1015.6
20260902145633 91 324 3.5 3.5 0.00 0.00 0.00 36 1015.5
20260902145130 91 305 0.0 2.6 0.00 0.00 0.00 36 1015.3
20260902144631 91 6 0.0 0.9 0.00 0.00 0.00 36 1015.3
20260902144134 91 117 0.0 1.7 0.00 0.00 0.00 36 1015.4
20260902143632 91 108 0.0 1.7 0.00 0.00 0.00 37 1015.4
20260902143131 91 129 0.0 1.7 0.00 0.00 0.00 36 1015.3
20260902142633 91 330 0.0 1.7 0.00 0.00 0.00 37 1015.2
20260902142130 91 31 0.9 7.0 0.00 0.00 0.00 38 1015.4
20260902141634 91 86 0.9 7.0 0.00 0.00 0.00 38 1015.3
20260902141133 91 7 0.9 6.1 0.00 0.00 0.00 39 1015.5
20260902140630 91 22 0.0 0.9 0.00 0.00 0.00 38 1015.4
20260902140131 91 8 0.0 0.0 0.00 0.00 0.00 36 1015.8
20260902135133 91 354 0.0 1.7 0.00 0.00 0.00 36 1015.5
20260902134634 92 310 1.7 1.7 0.00 0.00 0.00 36 1015.4
20260902134136 92 327 0.0 1.7 0.00 0.00 0.00 35 1015.4
20260902133133 93 331 0.0 3.5 0.00 0.00 0.00 35 1015.5
20260902132635 94 310 0.9 1.7 0.00 0.00 0.00 34 1015.3
20260902132132 94 316 0.0 1.7 0.00 0.00 0.00 34 1015.7
20260902131632 95 300 0.9 0.9 0.00 0.00 0.00 32 1015.9
20260902131132 94 174 0.0 0.9 0.00 0.00 0.00 33 1015.7
20260902130633 94 140 0.0 1.7 0.00 0.00 0.00 33 1015.8
20260902130131 94 140 0.0 1.7 0.00 0.00 0.00 32 1016.0
20260902125633 94 145 0.0 1.7 0.00 0.00 0.00 33 1016.2
20260902125135 94 145 0.0 1.7 0.00 0.00 0.00 32 1016.2
20260902124631 94 124 0.0 1.7 0.00 0.00 0.00 34 1016.2
20260902124134 94 170 0.0 1.7 0.00 0.00 0.00 33 1016.5
20260902123633 94 182 0.0 1.7 0.00 0.00 0.00 33 1016.5
20260902123139 94 85 0.0 0.9 0.00 0.00 0.00 35 1016.5
20260902122636 93 227 0.0 0.9 0.00 0.00 0.00 35 1016.6
20260902122134 94 220 0.0 0.9 0.00 0.00 0.00 33 1016.4
20260902121637 93 213 0.0 0.9 0.00 0.00 0.00 34 1016.5
20260902121142 92 112 0.0 0.9 0.00 0.00 0.00 37 1016.6
20260902120635 92 300 0.0 3.5 0.00 0.00 0.00 36 1016.6
20260902120134 92 301 0.0 3.5 0.00 0.00 0.00 40 1016.8
20260902115636 92 185 0.0 0.9 0.00 0.00 0.00 36 1016.9
20260902115137 93 142 0.0 0.9 0.00 0.00 0.00 36 1016.8
20260902114631 93 138 0.0 0.9 0.00 0.00 0.00 36 1016.7
20260902114133 92 135 0.0 1.7 0.00 0.00 0.00 38 1016.7
20260902113630 92 132 0.0 1.7 0.00 0.00 0.00 37 1016.9
20260902113132 92 199 0.0 0.9 0.00 0.00 0.00 40 1016.9
20260902112130 91 161 0.0 5.2 0.00 0.00 0.00 38 1017.0
20260902111631 91 226 0.0 5.2 0.00 0.00 0.00 39 1017.2
20260902111133 91 218 0.0 0.9 0.00 0.00 0.00 38 1017.3
20260902110631 91 272 0.0 0.0 0.00 0.00 0.00 38 1017.5
20260902110131 91 273 0.0 0.0 0.00 0.00 0.00 40 1017.5
20260902105633 90 281 0.0 5.2 0.00 0.00 0.00 39 1017.6
20260902105131 89 316 0.0 5.2 0.00 0.00 0.00 41 1017.7
20260902104636 90 297 1.7 1.7 0.00 0.00 0.00 38 1017.6
20260902104133 90 146 0.0 1.7 0.00 0.00 0.00 40 1017.8
20260902103631 88 132 0.0 1.7 0.00 0.00 0.00 40 1017.7
20260902103131 89 131 0.0 1.7 0.00 0.00 0.00 38 1018.0
20260902102639 89 166 0.0 1.7 0.00 0.00 0.00 39 1017.9
20260902102134 89 146 0.0 1.7 0.00 0.00 0.00 39 1018.0
20260902101633 89 269 0.0 1.7 0.00 0.00 0.00 38 1018.0
20260902101134 89 147 0.0 0.9 0.00 0.00 0.00 38 1018.2
20260902100639 89 147 0.0 0.9 0.00 0.00 0.00 37 1018.1
20260902100135 89 152 0.0 0.9 0.00 0.00 0.00 37 1018.1
20260902095131 86 151 0.0 0.9 0.00 0.00 0.00 39 1018.3
20260902094633 86 170 0.0 0.9 0.00 0.00 0.00 39 1018.2
20260902094133 87 276 0.0 0.9 0.00 0.00 0.00 38 1018.3
20260902093130 85 145 0.0 0.9 0.00 0.00 0.00 43 1018.2
20260902092633 86 243 0.9 0.9 0.00 0.00 0.00 39 1018.4
20260902092132 85 295 0.0 0.9 0.00 0.00 0.00 39 1018.4
20260902091630 82 296 0.0 1.7 0.00 0.00 0.00 44 1018.6
20260902091136 83 310 0.0 1.7 0.00 0.00 0.00 44 1018.6
20260902090633 82 47 0.0 0.9 0.00 0.00 0.00 49 1018.6
20260902090135 82 44 0.0 0.9 0.00 0.00 0.00 47 1018.6
20260902085633 81 334 0.0 0.9 0.00 0.00 0.00 51 1018.4
20260902085132 81 327 0.9 0.9 0.00 0.00 0.00 50 1018.4
20260902084139 78 331 0.0 1.7 0.00 0.00 0.00 54 1018.7
20260902083632 78 323 0.0 1.7 0.00 0.00 0.00 55 1018.6
20260902083133 78 313 0.0 0.9 0.00 0.00 0.00 55 1018.5
20260902082637 77 313 0.0 1.7 0.00 0.00 0.00 57 1018.5
20260902082137 77 313 0.0 1.7 0.00 0.00 0.00 57 1018.6
20260902081133 76 311 0.0 0.0 0.00 0.00 0.00 60 1018.3
20260902080131 75 310 0.0 0.0 0.00 0.00 0.00 62 1018.3
20260902075632 75 310 0.0 0.0 0.00 0.00 0.00 62 1018.6
20260902075223 75 310 0.0 0.0 0.00 0.00 0.00 64 1018.2
20260902074621 74 310 0.0 0.0 0.00 0.00 0.00 63 1018.3
20260902073555 73 310 0.0 0.0 0.00 0.00 0.00 66 1018.2
20260902073055 72 310 0.0 0.0 0.00 0.00 0.00 65 1018.4
20260902072548 72 310 0.0 0.0 0.00 0.00 0.00 67 1018.1
20260902072046 71 310 0.0 0.0 0.00 0.00 0.00 67 1018.2
20260902071549 70 310 0.0 0.0 0.00 0.00 0.00 67 1018.3
20260902071047 68 310 0.0 0.0 0.00 0.00 0.00 72 1018.3
20260902070545 67 311 0.0 0.0 0.00 0.00 0.00 72 1018.4
20260902070051 68 311 0.0 0.0 0.00 0.00 0.00 72 1018.2
20260902065542 67 311 0.0 0.0 0.00 0.00 0.00 72 1018.4
20260902064545 67 311 0.0 0.0 0.00 0.00 0.00 72 1018.4
20260902064049 66 311 0.0 0.0 0.00 0.00 0.00 73 1018.2
20260902063543 66 311 0.0 0.0 0.00 0.00 0.00 73 1018.1
20260902063046 65 310 0.0 0.0 0.00 0.00 0.00 75 1018.3
20260902062544 65 310 0.0 0.0 0.00 0.00 0.00 73 1018.2
20260902062044 64 310 0.0 0.0 0.00 0.00 0.00 75 1018.4
20260902061545 64 310 0.0 0.0 0.00 0.00 0.00 74 1018.4
20260902060542 62 311 0.0 0.9 0.00 0.00 0.00 79 1018.2
20260902060046 61 310 0.0 0.0 0.00 0.00 0.00 78 1018.4
20260902055543 61 311 0.0 0.0 0.00 0.00 0.00 79 1018.5
20260902055038 60 311 0.0 0.0 0.00 0.00 0.00 82 1018.3
20260902054533 59 311 0.0 0.0 0.00 0.00 0.00 84 1018.2
20260902054034 58 311 0.0 0.0 0.00 0.00 0.00 85 1018.2
20260902053032 57 311 0.0 0.0 0.00 0.00 0.00 86 1018.3
20260902052530 57 311 0.0 0.0 0.00 0.00 0.00 86 1018.1
20260902051530 56 311 0.0 0.0 0.00 0.00 0.00 85 1018.3
20260902051021 56 311 0.0 0.0 0.00 0.00 0.00 86 1018.1
20260902050522 56 311 0.0 0.0 0.00 0.00 0.00 87 1018.1
20260902050019 56 311 0.0 0.0 0.00 0.00 0.00 87 1018.2
20260902045522 56 311 0.0 0.0 0.00 0.00 0.00 87 1018.1
20260902045018 56 311 0.0 0.9 0.00 0.00 0.00 87 1018.2
20260902044519 56 311 0.0 0.9 0.00 0.00 0.00 87 1018.1
20260902043457 56 311 0.0 1.7 0.00 0.00 0.00 86 1018.2
20260902042456 56 311 0.9 1.7 0.00 0.00 0.00 87 1017.9
20260902041957 56 311 0.0 0.0 0.00 0.00 0.00 88 1018.0
20260902041444 56 311 0.0 0.0 0.00 0.00 0.00 87 1017.9
20260902040944 56 311 0.0 0.0 0.00 0.00 0.00 88 1017.7
20260902035943 56 311 0.0 0.0 0.00 0.00 0.00 87 1017.8
20260902035444 56 311 0.0 0.0 0.00 0.00 0.00 87 1017.9
20260902034942 56 311 0.0 0.0 0.00 0.00 0.00 86 1017.9
20260902034442 56 311 0.0 0.0 0.00 0.00 0.00 86 1017.9
20260902033931 56 311 0.0 0.0 0.00 0.00 0.00 86 1017.9
20260902033434 56 311 0.0 0.0 0.00 0.00 0.00 86 1017.8
20260902032431 56 311 0.0 0.0 0.00 0.00 0.00 86 1017.8
20260902031931 56 311 0.0 0.0 0.00 0.00 0.00 86 1017.8
20260902031432 57 311 0.0 0.0 0.00 0.00 0.00 85 1017.7
20260902030919 57 311 0.0 0.0 0.00 0.00 0.00 85 1017.7
20260902030422 57 311 0.0 0.9 0.00 0.00 0.00 84 1017.9
20260902025419 58 311 0.0 0.9 0.00 0.00 0.00 83 1017.9
20260902024920 58 311 0.0 1.7 0.00 0.00 0.00 83 1017.8
20260902024418 58 311 0.0 2.6 0.00 0.00 0.00 82 1017.6
20260902023424 57 329 0.0 0.9 0.00 0.00 0.00 85 1017.8
20260902021924 58 329 0.0 0.0 0.00 0.00 0.00 84 1017.8
20260902021409 58 329 0.0 0.0 0.00 0.00 0.00 84 1017.8
20260902020909 58 329 0.0 0.0 0.00 0.00 0.00 83 1017.7
20260902020407 58 329 0.0 0.0 0.00 0.00 0.00 82 1017.6
20260902015845 58 329 0.0 0.0 0.00 0.00 0.00 82 1017.8
20260902015346 58 329 0.0 0.0 0.00 0.00 0.00 82 1017.6
20260902014838 58 329 0.0 0.0 0.00 0.00 0.00 82 1017.6
20260902014331 58 329 0.0 0.0 0.00 0.00 0.00 81 1017.7
20260902013835 58 329 0.0 0.0 0.00 0.00 0.00 82 1017.5
20260902013335 58 329 0.0 0.0 0.00 0.00 0.00 82 1017.6
20260902012837 58 329 0.0 0.0 0.00 0.00 0.00 81 1017.7
20260902011334 59 329 0.0 0.9 0.00 0.00 0.00 79 1017.8
20260902010837 59 329 0.0 1.7 0.00 0.00 0.00 79 1018.0
20260902010331 59 329 0.0 1.7 0.00 0.00 0.00 80 1017.8
20260902004823 59 330 0.0 0.0 0.00 0.00 0.00 80 1017.7
20260902004320 59 330 0.0 0.0 0.00 0.00 0.00 80 1017.6
20260902002320 60 329 0.0 0.0 0.00 0.00 0.00 77 1017.7
20260902001821 61 329 0.0 0.0 0.00 0.00 0.00 77 1017.8
20260902001307 61 329 0.0 0.0 0.00 0.00 0.00 76 1017.9
20260902000807 61 329 0.0 0.0 0.00 0.00 0.00 76 1017.9
20260902000258 61 329 0.0 0.0 0.00 0.00 0.00 75 1017.9
20260901235755 62 329 0.0 0.0 0.00 0.00 0.00 75 1017.8
20260901235256 62 329 0.0 0.0 0.00 0.00 0.00 75 1017.9
20260901234247 62 329 0.0 1.7 0.00 0.00 0.00 74 1018.1
20260901233748 62 335 0.0 0.9 0.00 0.00 0.00 74 1018.1
20260901233245 62 329 0.9 0.9 0.00 0.00 0.00 75 1018.0
20260901232246 63 334 0.0 0.0 0.00 0.00 0.00 75 1017.9
20260901231746 63 334 0.0 0.0 0.00 0.00 0.00 75 1017.9
20260901230742 64 334 0.0 0.0 0.00 0.00 0.00 73 1018.1
20260901230243 64 334 0.0 0.0 0.00 0.00 0.00 74 1018.1
20260901225247 64 333 0.0 0.9 0.00 0.00 0.00 73 1018.0
20260901224735 65 333 0.0 0.9 0.00 0.00 0.00 72 1018.0
20260901224234 64 333 0.9 0.9 0.00 0.00 0.00 72 1017.9
20260901223238 65 333 0.0 0.9 0.00 0.00 0.00 73 1018.0
20260901222730 65 333 0.0 0.9 0.00 0.00 0.00 73 1018.1
20260901222232 65 333 0.0 0.9 0.00 0.00 0.00 73 1018.0
20260901221736 66 338 0.0 0.0 0.00 0.00 0.00 73 1018.2
20260901220727 67 337 0.0 0.0 0.00 0.00 0.00 72 1018.0